Weather History for Dillon, MT

Change the Weather History Date:

Friday, May 24, 2013

  Actual Average Record
Temperature  
Mean Temperature 48 °F 52 °F  
Max Temperature 62 °F 66 °F 85 °F (1988)
Min Temperature 34 °F 39 °F 27 °F (1989)
Degree Days  
Heating Degree Days 17    
Month to date heating degree days 290  
Since 1 July heating degree days 7385  
Cooling Degree Days 0    
Month to date cooling degree days 3  
Year to date cooling degree days 3  
Moisture  
Dew Point 31 °F    
Average Humidity 61    
Maximum Humidity 92    
Minimum Humidity 29    
Precipitation  
Precipitation 0.07 in 0.08 in 0.85 in (2011)
Month to date precipitation 1.71 1.39  
Year to date precipitation 2.25 3.51  
Snow  
Snow 0.00 in - - ()
Snow Depth 0.00 in    
Sea Level Pressure  
Sea Level Pressure 29.92 in    
Wind  
Wind Speed 10 mph (SSW)    
Max Wind Speed 25 mph    
Max Gust Speed 36 mph    
Visibility 10 miles    
Events Rain , Snow    
T = Trace of Precipitation, MM = Missing Value Source: NWS Daily Summary

Daily Weather History Graph

Daily Weather History Graph

Search for Another Location

Airport:

Trip Planner

Search our weather history database for the weather conditions in past years. The results will help you decide how hot, cold, wet, or windy it might be!

Date:

Astronomy

May. 24, 2013 Rise Set
Actual Time 5:51 AM MDT 9:03 PM MDT
Civil Twilight 5:15 AM MDT 9:39 PM MDT
Nautical Twilight 4:29 AM MDT 10:25 PM MDT
Astronomical Twilight 3:32 AM MDT 11:23 PM MDT
Moon 8:48 PM MDT (5/24) 5:28 AM MDT (5/24)
Length of Visible Light 16h 23m
Length of Day
15h 12m
Full, 100% of the Moon is Illuminated
May 24
Full
May 24
Full
May 31
Last Quarter
Jun 8
New
Jun 16
First Quarter

Hourly Weather History & Observations

Time (MDT) Temp. Windchill Dew Point Humidity Pressure Visibility Wind Dir Wind Speed Gust Speed Precip Events Conditions
12:53 AM 37.9 °F - 36.0 °F 93% 29.90 in 10.0 mi Calm Calm - N/A   Overcast
1:53 AM 37.9 °F 35.5 °F 36.0 °F 93% 29.88 in 10.0 mi East 3.5 mph - N/A   Overcast
2:40 AM 37.4 °F 27.2 °F 35.6 °F 93% 29.93 in 9.0 mi SW 19.6 mph 24.2 mph 0.00 in Rain Light Rain
2:47 AM 33.8 °F 22.5 °F 32.0 °F 93% 29.94 in 3.0 mi SW 19.6 mph - 0.03 in Rain Heavy Rain
2:53 AM 34.0 °F 23.0 °F 32.0 °F 92% 29.92 in 3.0 mi SW 18.4 mph - 0.05 in Snow Light Snow
3:13 AM 35.6 °F 28.6 °F 33.8 °F 93% 29.94 in 10.0 mi SW 9.2 mph - 0.02 in Rain Light Rain
3:35 AM 35.6 °F 26.2 °F 33.8 °F 93% 29.96 in 10.0 mi South 15.0 mph - 0.02 in   Overcast
3:49 AM 37.4 °F 30.3 °F 33.8 °F 87% 29.96 in 10.0 mi SW 10.4 mph - 0.02 in   Overcast
3:53 AM 37.0 °F 29.8 °F 34.0 °F 89% 29.94 in 10.0 mi SSW 10.4 mph - 0.02 in   Overcast
4:39 AM 35.6 °F 29.2 °F 33.8 °F 93% 29.98 in 10.0 mi NE 8.1 mph - 0.00 in   Scattered Clouds
4:53 AM 35.1 °F 30.1 °F 33.1 °F 92% 29.99 in 10.0 mi East 5.8 mph - 0.00 in   Partly Cloudy
5:53 AM 36.0 °F 29.0 °F 32.0 °F 86% 30.00 in 10.0 mi South 9.2 mph - N/A   Partly Cloudy
6:53 AM 37.0 °F 31.6 °F 32.0 °F 82% 30.01 in 10.0 mi SSW 6.9 mph - N/A   Clear
7:53 AM 39.0 °F 35.7 °F 35.1 °F 86% 30.02 in 10.0 mi SW 4.6 mph - N/A   Clear
8:53 AM 43.0 °F 37.2 °F 34.0 °F 71% 30.00 in 10.0 mi WSW 10.4 mph - N/A   Clear
9:53 AM 45.0 °F 42.6 °F 35.1 °F 68% 29.98 in 10.0 mi Variable 4.6 mph - N/A   Clear
10:53 AM 50.0 °F - 28.9 °F 44% 29.95 in 10.0 mi Variable 5.8 mph - N/A   Clear
11:53 AM 52.0 °F - 28.0 °F 40% 29.93 in 10.0 mi WSW 12.7 mph 21.9 mph N/A   Clear
12:53 PM 54.0 °F - 26.1 °F 34% 29.91 in 10.0 mi Variable 6.9 mph - N/A   Overcast
1:53 PM 55.0 °F - 28.0 °F 35% 29.88 in 10.0 mi South 18.4 mph 35.7 mph N/A   Mostly Cloudy
2:53 PM 55.9 °F - 28.0 °F 34% 29.88 in 10.0 mi South 17.3 mph 33.4 mph N/A   Overcast
3:53 PM 57.9 °F - 32.0 °F 37% 29.84 in 10.0 mi SSW 16.1 mph 24.2 mph N/A   Overcast
4:53 PM 57.9 °F - 28.9 °F 33% 29.84 in 10.0 mi SSW 17.3 mph 27.6 mph N/A   Overcast
5:53 PM 60.1 °F - 28.9 °F 31% 29.83 in 10.0 mi SSW 21.9 mph 31.1 mph N/A   Overcast
6:53 PM 57.9 °F - 26.1 °F 30% 29.83 in 10.0 mi South 17.3 mph 26.5 mph N/A   Overcast
7:53 PM 57.0 °F - 26.1 °F 30% 29.84 in 10.0 mi South 15.0 mph - N/A   Mostly Cloudy
8:53 PM 55.9 °F - 26.1 °F 32% 29.83 in 10.0 mi South 9.2 mph - N/A   Overcast
9:53 PM 50.0 °F - 30.9 °F 48% 29.87 in 10.0 mi West 9.2 mph - N/A   Overcast
10:53 PM 46.9 °F - 30.9 °F 54% 29.89 in 10.0 mi Calm Calm - N/A   Partly Cloudy
11:53 PM 43.0 °F 37.7 °F 30.9 °F 62% 29.90 in 10.0 mi ESE 9.2 mph - N/A   Clear